Change the Weather History Date:

Wednesday, June 13, 2012

  Actual Average Record
Temperature  
Mean Temperature 76 °F 79 °F  
Max Temperature 86 °F 89 °F 100 °F (1953)
Min Temperature 65 °F 70 °F 54 °F (1903)
Degree Days  
Heating Degree Days 0 0  
Month to date heating degree days 0 0  
Since 1 June heating degree days 0 0  
Since 1 July heating degree days 2171 2964  
Cooling Degree Days 11 14  
Month to date cooling degree days 142 167  
Year to date cooling degree days 722 488  
Since 1 June cooling degree days 142 167  
Growing Degree Days 25 (Base 50)    
Moisture  
Dew Point 57 °F    
Average Humidity 62    
Maximum Humidity 90    
Minimum Humidity 34    
Precipitation  
Precipitation 0.00 in 0.12 in 3.98 in (1889)
Month to date precipitation 1.38 1.69  
Year to date precipitation 14.70 25.97  
Snow  
Snow 0.00 in 0.00 in - ()
Month to date snowfall 0.0 0.0  
Since 1 June snowfall 0.0 0.0  
Since 1 July snowfall 1.4 3.8  
Snow Depth 0.00 in    
Sea Level Pressure  
Sea Level Pressure 30.02 in    
Wind  
Wind Speed 5 mph (NE)    
Max Wind Speed 13 mph    
Max Gust Speed 23 mph    
Visibility 10 miles    
Events      
T = Trace of Precipitation, MM = Missing Value Source: NWS Daily Summary

Daily Weather History Graph

Daily Weather History Graph

Search for Another Location

Airport or City:

Trip Planner

Search our weather history database for the weather conditions in past years. The results will help you decide how hot, cold, wet, or windy it might be!

Date:

Astronomy

Jun. 13, 2012 Rise Set
Actual Time 5:45 AM CDT 8:15 PM CDT
Civil Twilight 5:15 AM CDT 8:44 PM CDT
Nautical Twilight 4:38 AM CDT 9:21 PM CDT
Astronomical Twilight 3:58 AM CDT 10:02 PM CDT
Moon 1:49 AM CDT (6/13) 3:09 PM CDT (6/13)
Length of Visible Light 15h 29m
Length of Day
14h 29m
Waning Crescent, 29% of the Moon is Illuminated
Jun 13
Waning Crescent
Jun 19
New
Jun 26
First Quarter
Jul 3
Full
Jul 10
Last Quarter

Hourly Weather History & Observations

Time (CDT) Temp. Heat Index Dew Point Humidity Pressure Visibility Wind Dir Wind Speed Gust Speed Precip Events Conditions
12:54 AM 70.0 °F - 66.0 °F 87% 30.05 in 10.0 mi Calm Calm - N/A   Scattered Clouds
1:54 AM 68.0 °F - 64.9 °F 90% 30.05 in 10.0 mi Calm Calm - N/A   Mostly Cloudy
2:54 AM 68.0 °F - 64.4 °F 88% 30.03 in 10.0 mi Variable 3.5 mph - N/A   Scattered Clouds
3:54 AM 70.0 °F - 60.1 °F 71% 30.02 in 10.0 mi Variable 5.8 mph - N/A   Scattered Clouds
4:54 AM 68.0 °F - 57.9 °F 70% 30.02 in 10.0 mi NE 6.9 mph - N/A   Mostly Cloudy
5:54 AM 66.2 °F - 57.2 °F 73% 30.05 in 10.0 mi NE 4.6 mph - N/A   Scattered Clouds
6:54 AM 69.1 °F - 55.9 °F 63% 30.08 in 10.0 mi NE 4.6 mph - N/A   Partly Cloudy
7:54 AM 71.1 °F - 55.9 °F 59% 30.08 in 10.0 mi ENE 4.6 mph - N/A   Partly Cloudy
8:54 AM 75.0 °F - 54.0 °F 48% 30.07 in 10.0 mi ENE 6.9 mph - N/A   Partly Cloudy
9:54 AM 78.1 °F - 55.0 °F 45% 30.06 in 10.0 mi ENE 5.8 mph - N/A   Scattered Clouds
10:54 AM 81.0 °F 80.7 °F 55.0 °F 41% 30.05 in 10.0 mi NNE 5.8 mph - N/A   Partly Cloudy
11:54 AM 82.0 °F 81.2 °F 53.1 °F 37% 30.04 in 10.0 mi NNW 3.5 mph - N/A   Scattered Clouds
12:54 PM 84.0 °F 82.6 °F 54.0 °F 35% 30.02 in 10.0 mi NNE 9.2 mph - N/A   Mostly Cloudy
1:54 PM 86.0 °F 84.5 °F 55.0 °F 35% 30.02 in 10.0 mi NNE 8.1 mph - N/A   Mostly Cloudy
2:54 PM 84.0 °F 82.6 °F 54.0 °F 35% 30.00 in 10.0 mi Variable 3.5 mph - N/A   Mostly Cloudy
3:54 PM 84.9 °F 83.7 °F 55.9 °F 37% 29.99 in 10.0 mi North 5.8 mph - N/A   Mostly Cloudy
4:54 PM 84.9 °F 83.6 °F 55.0 °F 36% 29.99 in 10.0 mi NNE 11.5 mph - 0.00 in   Mostly Cloudy
5:54 PM 84.0 °F 83.3 °F 57.0 °F 40% 29.98 in 10.0 mi NNE 6.9 mph - N/A   Mostly Cloudy
6:54 PM 82.9 °F 82.1 °F 55.9 °F 39% 29.98 in 10.0 mi NNE 9.2 mph - N/A   Scattered Clouds
7:54 PM 81.0 °F 80.7 °F 55.0 °F 41% 29.98 in 10.0 mi NE 8.1 mph - N/A   Scattered Clouds
8:54 PM 79.0 °F - 55.9 °F 45% 29.98 in 10.0 mi NE 5.8 mph - N/A   Scattered Clouds
9:54 PM 77.0 °F - 57.0 °F 50% 29.99 in 10.0 mi NE 4.6 mph - N/A   Scattered Clouds
10:54 PM 72.0 °F - 57.0 °F 59% 29.99 in 10.0 mi Calm Calm - N/A   Mostly Cloudy
11:54 PM 73.9 °F - 57.0 °F 55% 30.00 in 10.0 mi Calm Calm - N/A   Mostly Cloudy